VJH632 EDDH-LKKV

Flight info

Callsign VJH632
Flight time 0h 46m
Altitude 39000
Route AMLUH2G AMLUH M852 POVEL Z94 GALMA T703 ABERU L984 OKG
Aircraft E35L/M-SABDFGRWZ/S

Departure

Time 2026-04-22 18:29
Airport Hamburg Helmut Schmidt Airport (EDDH)

Arrival

Time 2026-04-22 19:16
Airport Karlovy Vary Airport (LKKV)
Time Latitude Longitude Altitude Speed Heading
2026-04-22 18:16 53.62651 9.98972 42 ft 0 kts 242°
2026-04-22 18:26 53.62645 9.98944 43 ft 4 kts 266°
2026-04-22 18:26 53.62679 9.98896 42 ft 9 kts 330°
2026-04-22 18:26 53.62740 9.98842 42 ft 9 kts 332°
2026-04-22 18:26 53.62793 9.98798 42 ft 7 kts 347°
2026-04-22 18:27 53.62843 9.98862 42 ft 11 kts 50°
2026-04-22 18:27 53.62901 9.98983 42 ft 15 kts 50°
2026-04-22 18:27 53.62961 9.99103 43 ft 13 kts 51°
2026-04-22 18:27 53.63018 9.99219 43 ft 12 kts 47°
2026-04-22 18:28 53.63091 9.99296 43 ft 11 kts 15°
2026-04-22 18:28 53.63159 9.99323 43 ft 11 kts 13°
2026-04-22 18:28 53.63235 9.99355 44 ft 11 kts 11°
2026-04-22 18:28 53.63300 9.99361 44 ft 9 kts 352°
2026-04-22 18:29 53.63368 9.99314 44 ft 14 kts 333°
2026-04-22 18:29 53.63697 9.99028 45 ft 103 kts 333°
2026-04-22 18:29 53.64510 9.98322 400 ft 149 kts 330°
2026-04-22 18:29 53.65482 9.97496 1292 ft 172 kts 332°
2026-04-22 18:30 53.66592 9.96549 2286 ft 189 kts 333°
2026-04-22 18:30 53.68970 9.94645 4428 ft 200 kts 350°
2026-04-22 18:30 53.70360 9.94637 5503 ft 212 kts
2026-04-22 18:31 53.71798 9.94690 6789 ft 214 kts
2026-04-22 18:31 53.73135 9.95638 7999 ft 219 kts 41°
2026-04-22 18:31 53.73859 9.97882 9138 ft 230 kts 77°
2026-04-22 18:31 53.74061 10.00447 9920 ft 220 kts 77°
2026-04-22 18:32 53.74269 10.03155 10276 ft 249 kts 87°
2026-04-22 18:32 53.73807 10.06087 11026 ft 279 kts 117°
2026-04-22 18:32 53.72777 10.08961 11756 ft 299 kts 114°
2026-04-22 18:32 53.71713 10.12050 12793 ft 310 kts 118°
2026-04-22 18:33 53.70578 10.15114 13830 ft 317 kts 118°
2026-04-22 18:33 53.69369 10.18270 14802 ft 328 kts 123°
2026-04-22 18:33 53.67613 10.20829 15809 ft 342 kts 148°
2026-04-22 18:33 53.65345 10.22082 16844 ft 352 kts 166°
2026-04-22 18:34 53.62968 10.23082 17912 ft 354 kts 162°
2026-04-22 18:34 53.60583 10.24167 18917 ft 360 kts 162°
2026-04-22 18:34 53.58181 10.25268 19995 ft 362 kts 162°
2026-04-22 18:34 53.55730 10.26391 21038 ft 365 kts 162°
2026-04-22 18:35 53.53294 10.27507 22046 ft 368 kts 161°
2026-04-22 18:35 53.50829 10.28634 23018 ft 371 kts 161°
2026-04-22 18:35 53.48337 10.29771 23956 ft 375 kts 161°
2026-04-22 18:35 53.45825 10.30916 24296 ft 375 kts 161°
2026-04-22 18:36 53.43293 10.32071 24310 ft 378 kts 161°
2026-04-22 18:36 53.40800 10.33473 24309 ft 380 kts 161°
2026-04-22 18:36 53.38180 10.34384 24309 ft 383 kts 162°
2026-04-22 18:36 53.35609 10.35534 24465 ft 387 kts 162°
2026-04-22 18:37 53.32997 10.36704 25423 ft 387 kts 161°
2026-04-22 18:37 53.30460 10.37842 26668 ft 380 kts 160°
2026-04-22 18:37 53.28777 10.38596 27429 ft 377 kts 160°
2026-04-22 18:37 53.25437 10.40092 28907 ft 371 kts 159°
2026-04-22 18:38 53.22978 10.41190 29971 ft 368 kts 158°
2026-04-22 18:38 53.20536 10.42278 31007 ft 358 kts 157°
2026-04-22 18:38 53.18222 10.43310 31287 ft 353 kts 157°
2026-04-22 18:39 53.13316 10.45523 31331 ft 379 kts 156°
2026-04-22 18:39 53.10724 10.46775 31666 ft 393 kts 157°
2026-04-22 18:39 53.08114 10.48032 32625 ft 389 kts 156°
2026-04-22 18:39 53.05561 10.49268 33715 ft 381 kts 155°
2026-04-22 18:40 53.03064 10.50478 34715 ft 375 kts 154°
2026-04-22 18:40 53.00549 10.51702 35236 ft 380 kts 155°
2026-04-22 18:40 52.98003 10.52934 35715 ft 386 kts 155°
2026-04-22 18:40 52.95410 10.54188 36093 ft 392 kts 156°
2026-04-22 18:41 52.92786 10.55453 36596 ft 395 kts 156°
2026-04-22 18:41 52.90102 10.56746 37220 ft 398 kts 156°
2026-04-22 18:41 52.87543 10.57978 37779 ft 401 kts 157°
2026-04-22 18:41 52.84806 10.59294 38301 ft 405 kts 157°
2026-04-22 18:42 52.82101 10.60592 38809 ft 408 kts 158°
2026-04-22 18:42 52.79354 10.61909 39233 ft 413 kts 158°
2026-04-22 18:42 52.73729 10.64601 39304 ft 427 kts 158°
2026-04-22 18:43 52.67960 10.67353 39312 ft 433 kts 159°
2026-04-22 18:43 52.62191 10.70098 39320 ft 436 kts 159°
2026-04-22 18:44 52.56365 10.72863 39317 ft 435 kts 159°
2026-04-22 18:44 52.50573 10.75603 39311 ft 430 kts 159°
2026-04-22 18:45 52.44870 10.78295 39321 ft 426 kts 159°
2026-04-22 18:45 52.39196 10.80966 39331 ft 426 kts 159°
2026-04-22 18:46 52.33470 10.83654 39321 ft 426 kts 159°
2026-04-22 18:46 52.27798 10.86310 39314 ft 426 kts 159°
2026-04-22 18:47 52.22100 10.88970 39313 ft 425 kts 159°
2026-04-22 18:47 52.16433 10.91610 39309 ft 425 kts 159°
2026-04-22 18:48 52.10743 10.94252 39305 ft 424 kts 159°
2026-04-22 18:48 52.05084 10.96915 39307 ft 423 kts 157°
2026-04-22 18:49 51.99573 10.99971 39305 ft 422 kts 156°
2026-04-22 18:49 51.94090 11.03033 39302 ft 421 kts 156°
2026-04-22 18:50 51.88567 11.06113 39301 ft 422 kts 156°
2026-04-22 18:50 51.83040 11.09188 39292 ft 421 kts 156°
2026-04-22 18:51 51.77575 11.12221 39292 ft 420 kts 156°
2026-04-22 18:51 51.72080 11.15262 39291 ft 419 kts 156°
2026-04-22 18:52 51.66533 11.18323 39299 ft 419 kts 156°
2026-04-22 18:52 51.61030 11.21354 39289 ft 419 kts 156°
2026-04-22 18:53 51.55597 11.24337 39281 ft 419 kts 156°
2026-04-22 18:53 51.50122 11.27336 39309 ft 418 kts 156°
2026-04-22 18:54 51.47354 11.28851 39150 ft 421 kts 156°
2026-04-22 18:54 51.44573 11.30368 38918 ft 424 kts 156°
2026-04-22 18:54 51.41801 11.31881 38692 ft 426 kts 156°
2026-04-22 18:54 51.38954 11.33431 38436 ft 429 kts 156°
2026-04-22 18:55 51.36140 11.34961 38181 ft 431 kts 156°
2026-04-22 18:55 51.33307 11.36500 37919 ft 433 kts 156°
2026-04-22 18:55 51.30482 11.38032 37587 ft 430 kts 156°
2026-04-22 18:55 51.27662 11.39560 37243 ft 427 kts 156°
2026-04-22 18:56 51.24856 11.41077 36809 ft 420 kts 155°
2026-04-22 18:56 51.22141 11.42543 36376 ft 412 kts 155°
2026-04-22 18:56 51.19452 11.43997 35935 ft 409 kts 155°
2026-04-22 18:56 51.16761 11.45446 35494 ft 405 kts 155°
2026-04-22 18:57 51.14097 11.46881 35049 ft 401 kts 155°
2026-04-22 18:57 51.11493 11.48282 34610 ft 396 kts 154°
2026-04-22 18:57 51.08899 11.49675 34185 ft 393 kts 154°
2026-04-22 18:57 51.06325 11.51057 33730 ft 392 kts 154°
2026-04-22 18:58 51.03744 11.52440 33362 ft 390 kts 154°
2026-04-22 18:58 51.01277 11.53758 33310 ft 379 kts 154°
2026-04-22 18:58 50.96395 11.56369 33302 ft 373 kts 154°
2026-04-22 18:59 50.91403 11.59034 32965 ft 385 kts 154°
2026-04-22 18:59 50.88845 11.60397 32564 ft 397 kts 155°
2026-04-22 18:59 50.86195 11.61805 32152 ft 407 kts 155°
2026-04-22 19:00 50.83507 11.63231 31737 ft 415 kts 155°
2026-04-22 19:00 50.80837 11.64647 31327 ft 419 kts 155°
2026-04-22 19:00 50.78055 11.66120 30888 ft 420 kts 156°
2026-04-22 19:00 50.75291 11.67580 30401 ft 416 kts 156°
2026-04-22 19:01 50.72590 11.69007 29918 ft 413 kts 156°
2026-04-22 19:01 50.69874 11.70441 29435 ft 410 kts 156°
2026-04-22 19:01 50.67150 11.71876 28940 ft 407 kts 156°
2026-04-22 19:01 50.64475 11.73285 28459 ft 405 kts 156°
2026-04-22 19:02 50.61818 11.74682 27977 ft 403 kts 156°
2026-04-22 19:02 50.59184 11.76065 27497 ft 401 kts 156°
2026-04-22 19:02 50.56503 11.77471 27008 ft 399 kts 156°
2026-04-22 19:02 50.53904 11.78834 26532 ft 398 kts 156°
2026-04-22 19:03 50.51290 11.80202 26046 ft 397 kts 157°
2026-04-22 19:03 50.48721 11.81545 25526 ft 397 kts 157°
2026-04-22 19:03 50.46125 11.82931 24992 ft 396 kts 154°
2026-04-22 19:03 50.43601 11.84657 24310 ft 396 kts 152°
2026-04-22 19:04 50.41107 11.86354 23506 ft 389 kts 152°
2026-04-22 19:04 50.38628 11.88035 22699 ft 383 kts 152°
2026-04-22 19:04 50.36221 11.89665 21911 ft 378 kts 152°
2026-04-22 19:04 50.33810 11.91295 21111 ft 373 kts 152°
2026-04-22 19:05 50.31467 11.92877 20333 ft 369 kts 152°
2026-04-22 19:05 50.29145 11.94544 19492 ft 358 kts 144°
2026-04-22 19:05 50.27408 11.96994 18638 ft 326 kts 120°
2026-04-22 19:05 50.26439 12.00009 17761 ft 307 kts 108°
2026-04-22 19:06 50.25808 12.03100 16843 ft 294 kts 95°
2026-04-22 19:06 50.25658 12.06190 15938 ft 285 kts 86°
2026-04-22 19:06 50.25718 12.09256 14952 ft 280 kts 82°
2026-04-22 19:07 50.26063 12.15189 13056 ft 275 kts 80°
2026-04-22 19:07 50.26273 12.18149 12088 ft 274 kts 79°
2026-04-22 19:07 50.26494 12.21073 11129 ft 272 kts 79°
2026-04-22 19:07 50.26720 12.23967 10185 ft 270 kts 79°
2026-04-22 19:08 50.26946 12.26856 9241 ft 269 kts 79°
2026-04-22 19:08 50.27171 12.29742 8301 ft 267 kts 79°
2026-04-22 19:08 50.27388 12.32533 7889 ft 257 kts 79°
2026-04-22 19:08 50.27602 12.35288 7509 ft 256 kts 79°
2026-04-22 19:09 50.27812 12.38012 7293 ft 248 kts 79°
2026-04-22 19:09 50.28016 12.40658 7063 ft 244 kts 80°
2026-04-22 19:09 50.28153 12.42434 6788 ft 246 kts 80°
2026-04-22 19:09 50.28428 12.46018 6110 ft 254 kts 80°
2026-04-22 19:10 50.28636 12.48755 5698 ft 251 kts 79°
2026-04-22 19:10 50.28832 12.51345 5344 ft 234 kts 79°
2026-04-22 19:10 50.29017 12.53784 5041 ft 218 kts 79°
2026-04-22 19:10 50.29187 12.56040 4992 ft 201 kts 79°
2026-04-22 19:11 50.29277 12.58169 4828 ft 196 kts 94°
2026-04-22 19:11 50.28820 12.60158 4682 ft 192 kts 108°
2026-04-22 19:11 50.28306 12.62072 4529 ft 187 kts 108°
2026-04-22 19:11 50.27808 12.63917 4494 ft 193 kts 108°
2026-04-22 19:12 50.27287 12.65846 4498 ft 200 kts 109°
2026-04-22 19:12 50.26775 12.67731 4487 ft 199 kts 109°
2026-04-22 19:12 50.26211 12.69810 4493 ft 195 kts 109°
2026-04-22 19:12 50.25683 12.71760 4489 ft 191 kts 108°
2026-04-22 19:13 50.25186 12.73652 4310 ft 183 kts 109°
2026-04-22 19:13 50.24717 12.75370 4065 ft 158 kts 108°
2026-04-22 19:13 50.24320 12.76827 3838 ft 137 kts 107°
2026-04-22 19:13 50.23929 12.78278 3671 ft 149 kts 108°
2026-04-22 19:14 50.23521 12.79765 3465 ft 149 kts 108°
2026-04-22 19:14 50.23120 12.81232 3257 ft 145 kts 107°
2026-04-22 19:14 50.22723 12.82687 3062 ft 144 kts 108°
2026-04-22 19:14 50.22340 12.84086 2864 ft 138 kts 109°
2026-04-22 19:15 50.22090 12.85000 2745 ft 135 kts 109°
2026-04-22 19:15 50.21590 12.86791 2504 ft 133 kts 110°
2026-04-22 19:15 50.21228 12.88115 2337 ft 131 kts 110°
2026-04-22 19:15 50.20866 12.89438 2164 ft 133 kts 110°
2026-04-22 19:16 50.20515 12.90743 1987 ft 126 kts 111°
2026-04-22 19:16 50.20235 12.91770 1983 ft 68 kts 113°
2026-04-22 19:16 50.20122 12.92180 1989 ft 28 kts 113°
2026-04-22 19:16 50.20058 12.92417 1990 ft 14 kts 115°
2026-04-22 19:17 50.20013 12.92571 1990 ft 14 kts 114°
2026-04-22 19:17 50.19963 12.92642 1989 ft 8 kts 159°
2026-04-22 19:17 50.19915 12.92641 1989 ft 8 kts 245°
2026-04-22 19:17 50.19927 12.92532 1990 ft 10 kts 292°
2026-04-22 19:18 50.19960 12.92410 1990 ft 13 kts 293°
2026-04-22 19:18 50.20000 12.92265 1990 ft 9 kts 293°
2026-04-22 19:18 50.20032 12.92147 1989 ft 13 kts 294°
2026-04-22 19:18 50.20068 12.92014 1987 ft 11 kts 293°
2026-04-22 19:19 50.20105 12.91881 1986 ft 15 kts 293°
2026-04-22 19:19 50.20150 12.91715 1983 ft 15 kts 292°
2026-04-22 19:19 50.20193 12.91559 1980 ft 14 kts 293°
2026-04-22 19:19 50.20228 12.91431 1979 ft 12 kts 293°
2026-04-22 19:20 50.20262 12.91307 1977 ft 8 kts 293°
2026-04-22 19:20 50.20285 12.91223 1977 ft 9 kts 285°
2026-04-22 19:20 50.20256 12.91171 1977 ft 5 kts 228°
2026-04-22 19:20 50.20227 12.91141 1977 ft 5 kts 202°
2026-04-22 19:21 50.20205 12.91127 1977 ft 3 kts 202°
2026-04-22 19:21 50.20198 12.91123 1977 ft 0 kts 202°